Regional Weather Roundup
Issued by NWS

Home | Current Version | Previous Version | Text Only | Print | Product List | Glossary Off
Versions: 1 2 3 4 5 6 7 8 9 10 11 12 13 14 15 16 17 18 19 20 21 22 23 24 25 26 27 28 29 30 31 32 33 34 35 36 37 38 39 40 41 42 43 44 45 46 47 48 49 50

000
ASUS43 KOAX 221110
RWRNE

WEATHER ROUNDUP FOR NEBRASKA
NATIONAL WEATHER SERVICE OMAHA NE
600 AM CDT SUN OCT 22 2017

NOTES: SATELLITE DATA IS BEING USED TO AUGMENT CLOUD COVER ABOVE
       12000 FEET.
       "FAIR" INDICATES FEW OR NO CLOUDS BELOW 12,000 FEET WITH NO
       SIGNIFICANT WEATHER AND/OR OBSTRUCTIONS TO VISIBILITY.


NEZ001>004-019>022-054>056-221200-
NEBRASKA PANHANDLE

CITY           SKY/WX    TMP DP  RH WIND       PRES   REMARKS
SCOTTSBLUFF    CLEAR     34  18  52 CALM      30.08R
ALLIANCE       CLEAR     28  20  71 SW12      30.06R WCI  18
CHADRON        CLEAR     22  14  71 W5        30.01F WCI  16
GORDON         FAIR      31  20  63 SW8       30.02S WCI  24
KIMBALL        CLEAR     33  19  56 SW5       30.11S WCI  28
SIDNEY         CLEAR     26  19  74 W10       30.11F WCI  16
$$

NEZ057>060-069>072-079>082-221200-
SOUTHWEST NEBRASKA

CITY           SKY/WX    TMP DP  RH WIND       PRES   REMARKS
NORTH PLATTE   CLEAR     29  25  85 CALM      30.11R
IMPERIAL       CLEAR     37  22  54 W7        30.14R WCI  32
LEXINGTON      CLEAR     31  26  82 W3        30.12R
MCCOOK         CLEAR     33  23  66 SW9       30.14S WCI  25
OGALLALA       CLEAR     31  24  74 SW5       30.11R WCI  26
$$

NEZ005>010-023>029-035>040-094-221200-
NORTH CENTRAL NEBRASKA

CITY           SKY/WX    TMP DP  RH WIND       PRES   REMARKS
VALENTINE      CLEAR     27  24  89 SW7       30.03S WCI  19
AINSWORTH      CLEAR     34  28  79 SW6       30.03F WCI  29
BROKEN BOW     CLEAR     27  23  85 CALM      30.08R
O`NEILL        CLEAR     35  31  86 SW6       30.07R WCI  30
ORD            CLEAR     29  27  92 CALM      30.09R
THEDFORD       CLEAR     36  26  66 SW7       30.07S WCI  30
$$

NEZ041-046>049-061>064-073>077-083>087-221200-
SOUTH CENTRAL NEBRASKA

CITY           SKY/WX    TMP DP  RH WIND       PRES   REMARKS
GRAND ISLAND   CLEAR     36  33  89 W5        30.11R WCI  32
AURORA         CLEAR     37  33  88 W6        30.10R WCI  32
HASTINGS       CLEAR     36  30  79 W5        30.12R WCI  32
HEBRON         CLEAR     38  36  90 W3        30.13R
HOLDREGE       CLEAR     32  27  81 SW6       30.12R WCI  27
KEARNEY        CLEAR     32  27  81 CALM      30.11S
YORK           CLEAR     37  36  93 W8        30.11R WCI  31
$$

NEZ011>018-030>034-042>045-221200-
NORTHEAST NEBRASKA

CITY           SKY/WX    TMP DP  RH WIND       PRES   REMARKS
NORFOLK        CLEAR     35  30  82 W3        30.07R
ALBION         CLEAR     29  27  90 NW3       30.08R
BLAIR          CLOUDY    44  39  83 W5        30.06R
COLUMBUS       CLEAR     37  33  85 W5        30.09R WCI  33
FREMONT        CLEAR     39  38  95 CALM      30.07R
TEKAMAH        CLOUDY    39  36  89 CALM      30.06R
WAYNE          CLEAR     34  32  92 SW5       30.05R WCI  30
$$

NEZ050>053-065>068-078-088>093-221200-
SOUTHEAST NEBRASKA

CITY           SKY/WX    TMP DP  RH WIND       PRES   REMARKS
LINCOLN        CLOUDY    44  37  76 CALM      30.10R
OMAHA EPPLEY   CLOUDY    48  38  68 CALM      30.06R
BEATRICE       CLOUDY    42  39  89 CALM      30.11R
FALLS CITY     CLOUDY    48  42  80 W7        30.07R
NEBRASKA CITY  MOCLDY    46  43  90 W6        30.08R
PLATTSMOUTH    PTCLDY    46  42  85 W5        30.07R
$$

NEZ044-045-051>053-067-221200-
OMAHA AREA

CITY           SKY/WX    TMP DP  RH WIND       PRES   REMARKS
OMAHA EPPLEY   CLOUDY    48  38  68 CALM      30.06R
BLAIR          CLOUDY    44  39  83 W5        30.06R
FREMONT        CLEAR     39  38  95 CALM      30.07R
MILLARD        MOCLDY    45  42  90 CALM      30.08R
OFFUTT AFB     PTCLDY    46  40  80 SW3       30.06R
PLATTSMOUTH    PTCLDY    46  42  85 W5        30.07R
WAHOO          FAIR      43  36  78 W5        30.07R
$$




USA.gov is the U.S. government's official web portal to all federal, state and local government web resources and services.